Location: Bacharowice
(49.9333°N, 19.5833°E)
Time: 03:52:04
(UTC+00:00)

USA 305 - Pass Details

Date: 11 May 2021
Orbit: 567 x 573 km, 54.0° (Epoch: 07 May)

Event Time Altitude Azimuth Distance (km) Brightness Sun altitude
Rises 20:23:26 0° 295° (WNW) 2,775 7.4 -15.8°
Reaches altitude 10° 20:25:44 10° 290° (WNW) 1,876 6.3 -16.0°
Maximum altitude 20:29:51 49° 215° (SW) 744 3.3 -16.3°
Enters shadow 20:31:23 32° 162° (SSE) 984 3.5 -16.4°
